Volver al catálogo

STARLINK-36493

ActivoComunicacionesVLEO
NORAD 67456·PAYLOAD·🇺🇸 United States

Lanzado Jan 14, 2026 desde Cape Canaveral Space Force Station

Loading…

Próximos Pases (próximas 24 horas)

TLE

ActualizadoSource: CelesTrak SupGP

Época: Sep 15, 2026, 03:27 UTC

1 67456C 26008M   26258.14423611 -.00044639  00000+0 -16171-2 0  2582
2 67456  42.9994 215.1420 0001100 272.9985 262.6474 15.27596442    13

Sigue STARLINK-36493 en tiempo real con AllMySat

Download on the App Store